Location: Mascot Post Office (historical)
(40.2645°N, 99.5462°W)
Time: 02:34:38
(UTC+00:00)

Cosmos 1271 Rocket - Pass Details

Date: 14 July 2020
Orbit: 498 x 546 km, 81.2° (Epoch: 14 August)

Event Time Altitude Azimuth Distance (km) Brightness Sun altitude
Rises 10:38:58 0° 340° (NNW) 2,616 6.5 -7.5°
Reaches altitude 10° 10:41:16 10° 330° (NNW) 1,720 5.4 -7.2°
Maximum altitude 10:44:36 31° 267° (W) 906 3.5 -6.7°
Drops below altitude 10° 10:47:54 10° 205° (SSW) 1,695 4.8 -6.2°
Enters shadow 10:50:05 - 194° (SSW) 2,543 5.8 -5.8°
